Location: Unspecified
(49.8670°N, 0.0000°E)
Time: 03:50:33
(UTC+00:00)

Vanguard 1 - Pass Details

Date: 24 June 2019
Orbit: 653 x 3830 km, 34.3° (Epoch: 12 October)

Event Time Altitude Azimuth Distance (km) Brightness Sun altitude
Rises 06:31:00 0° 266° (W) 6,224 13.6 22.2°
Reaches altitude 10° 06:36:43 10° 255° (WSW) 4,594 13.0 23.1°
Maximum altitude 06:45:00 23° 209° (SSW) 2,724 12.2 24.4°
Drops below altitude 10° 06:50:34 10° 159° (SSE) 2,956 12.8 25.3°
Sets 06:53:19 0° 144° (SE) 3,607 13.4 25.7°
